Location: Horowhenua
(40.7500°S, 175.3333°E)
Time: 05:42:17
(UTC+00:00)

CZ-2C R/B - Pass Details

Date: 28 January 2023
Orbit: 702 x 908 km, 98.1° (Epoch: 01 April)

Event Time Altitude Azimuth Distance (km) Brightness Sun altitude
Exits shadow 15:02:15 - 32° (NNE) 2,621 5.6 -21.5°
Reaches altitude 10° 15:03:01 10° 34° (NE) 2,318 5.3 -21.4°
Maximum altitude 15:07:54 49° 108° (ESE) 970 3.8 -20.8°
Drops below altitude 10° 15:12:38 10° 181° (S) 2,245 6.1 -20.2°
Sets 15:14:56 0° 186° (S) 3,157 6.8 -20.0°
